Pocatello, ID

12:49 PM MDT on March 28, 2017 (GMT -0600)
Pocatello Regional

Weather History for KPIH - May, 2013

Change the Weather History Date:

Tuesday, May 14, 2013

  Actual Average Record
Temperature  
Mean Temperature 68 °F 53 °F  
Max Temperature 79 °F 67 °F 86 °F (1984)
Min Temperature 56 °F 39 °F 30 °F (1989)
Degree Days  
Heating Degree Days 0 12  
Month to date heating degree days 135 191  
Since 1 July heating degree days 6661 6885  
Cooling Degree Days 3 0  
Month to date cooling degree days 7 0  
Year to date cooling degree days 7 0  
Growing Degree Days 17 (Base 50)    
Moisture  
Dew Point 37 °F    
Average Humidity 37    
Maximum Humidity 55    
Minimum Humidity 19    
Precipitation  
Precipitation 0.00 in 0.05 in 0.31 in (1949)
Month to date precipitation 0.07 0.66  
Year to date precipitation 2.41 5.03  
Snow  
Snow 0.00 in - - ()
Month to date snowfall 0.0  
Since 1 July snowfall 37.8  
Snow Depth 0.00 in    
Sea Level Pressure  
Sea Level Pressure 29.88 in    
Wind  
Wind Speed 15 mph (SW)    
Max Wind Speed 28 mph    
Max Gust Speed 35 mph    
Visibility 10 miles    
Events      
T = Trace of Precipitation, MM = Missing Value Source: NWS Daily Summary

Daily Weather History Graph

Daily Weather History Graph

Search for Another Location

Airport or City:

Trip Planner

Search our weather history database for the weather conditions in past years. The results will help you decide how hot, cold, wet, or windy it might be!

Date:

Astronomy

May. 14, 2013 Rise Set
Actual Time 6:08 AM MDT 8:45 PM MDT
Civil Twilight 5:35 AM MDT 9:18 PM MDT
Nautical Twilight 4:54 AM MDT 9:59 PM MDT
Astronomical Twilight 4:08 AM MDT 10:46 PM MDT
Moon 9:51 AM MDT (5/14) No Moon Set
Length of Visible Light 15h 42m
Length of Day
14h 37m
Waxing Crescent, 19% of the Moon is Illuminated
May 14
Waxing Crescent
May 17
First Quarter
May 24
Full
May 31
Last Quarter
Jun 8
New

Hourly Weather History & Observations

Time (MDT) Temp. Dew Point Humidity Pressure Visibility Wind Dir Wind Speed Gust Speed Precip Events Conditions
12:53 AM 64.9 °F 28.0 °F 25% 29.82 in 10.0 mi SSW 11.5 mph - N/A   Clear
1:53 AM 66.0 °F 28.9 °F 25% 29.83 in 10.0 mi SW 15.0 mph - N/A   Clear
2:53 AM 63.0 °F 32.0 °F 31% 29.85 in 10.0 mi SW 20.7 mph - N/A   Clear
3:53 AM 62.1 °F 37.9 °F 41% 29.86 in 10.0 mi WSW 26.5 mph 34.5 mph N/A   Clear
4:53 AM 60.1 °F 39.9 °F 47% 29.88 in 10.0 mi SW 18.4 mph 26.5 mph N/A   Clear
5:53 AM 57.9 °F 41.0 °F 53% 29.91 in 10.0 mi SW 17.3 mph - N/A   Clear
6:53 AM 57.0 °F 41.0 °F 55% 29.95 in 10.0 mi SW 12.7 mph - N/A   Clear
7:53 AM 60.1 °F 41.0 °F 49% 29.96 in 10.0 mi SW 16.1 mph - N/A   Clear
8:53 AM 63.0 °F 39.9 °F 43% 29.98 in 10.0 mi SW 19.6 mph 28.8 mph N/A   Clear
9:53 AM 66.0 °F 39.9 °F 38% 29.99 in 10.0 mi SW 19.6 mph - N/A   Clear
10:53 AM 69.1 °F 39.0 °F 33% 29.95 in 10.0 mi SW 19.6 mph - N/A   Clear
11:53 AM 71.1 °F 37.9 °F 30% 29.95 in 10.0 mi WSW 16.1 mph 27.6 mph N/A   Clear
12:53 PM 75.0 °F 37.0 °F 25% 29.94 in 10.0 mi SW 19.6 mph 26.5 mph N/A   Clear
1:53 PM 75.9 °F 37.0 °F 24% 29.91 in 10.0 mi West 13.8 mph 25.3 mph N/A   Clear
2:53 PM 75.9 °F 37.0 °F 24% 29.89 in 10.0 mi West 16.1 mph 20.7 mph N/A   Partly Cloudy
3:53 PM 78.1 °F 35.1 °F 21% 29.86 in 10.0 mi West 15.0 mph 23.0 mph N/A   Partly Cloudy
4:53 PM 78.1 °F 34.0 °F 20% 29.83 in 10.0 mi West 15.0 mph 23.0 mph N/A   Partly Cloudy
5:53 PM 78.1 °F 34.0 °F 20% 29.83 in 10.0 mi WSW 11.5 mph - N/A   Partly Cloudy
6:53 PM 77.0 °F 33.1 °F 20% 29.81 in 10.0 mi SW 12.7 mph - N/A   Partly Cloudy
7:53 PM 73.9 °F 39.0 °F 28% 29.81 in 10.0 mi SSW 6.9 mph - N/A   Clear
8:53 PM 66.0 °F 37.0 °F 34% 29.82 in 10.0 mi SSW 9.2 mph - N/A   Clear
9:53 PM 66.0 °F 36.0 °F 33% 29.85 in 10.0 mi SSW 8.1 mph - N/A   Clear
10:53 PM 64.9 °F 37.0 °F 36% 29.85 in 10.0 mi SSW 10.4 mph - N/A   Partly Cloudy
11:53 PM 64.9 °F 37.9 °F 37% 29.85 in 10.0 mi SSW 12.7 mph - N/A   Clear